www.pogodaiklimat.ru

Погода и климат >> Архив погоды >> Франция >> Шато-Арну-Сент-Обан


ПОГОДА в Шато-Арну-Сент-Обане

  • Прогноз погоды в Шато-Арну-Сент-Обане
  • Монитор погоды в Шато-Арну-Сент-Обане

АРХИВ ПОГОДЫ в Шато-Арну-Сент-Обане

Время (UTC), дата Ветер
(напр.,м/с)
 
Видим.   Явления Облачность Т
(С)
Тd
(С)
f
(%)
Тe
(С)
Тes
(С)
Комфортность P
(гПа)
Po
(гПа)
Тmin
(С)
Tmax
(С)
R
(мм)
R24
(мм)
S
(см)
19 16.08 ЮЗ 2 20 км н/о +25.0 +8.0 34 +25 +25 комфорт 1014.1 962.4
20 16.08 штиль 0 20 км н/о +21.8 +8.3 42 +23 +23 комфорт 1015.4 963.1
21 16.08 ЮВ 1
{3}
20 км н/о +19.1 +8.1 49 +21 +21 комфорт 1016.4 963.6 0
22 16.08 З 1 20 км н/о +17.5 +8.6 56 +19 +19 1017.2 964.1
23 16.08 штиль 0 20 км н/о +16.9 +9.1 60 +17 +17 1017.8 964.5
00 17.08 В 1
{3}
20 км н/о +16.2 +9.1 63 +18 +18 1017.7 964.3 0
01 17.08 ЮВ 1 20 км н/о +15.3 +9.0 66 +17 +17 1017.6 964.1
02 17.08 СВ 1 20 км н/о +14.6 +9.2 70 +16 +16 1018.0 964.3
03 17.08 СВ 1
{3}
20 км н/о +13.9 +9.3 74 +14 +14 1018.1 964.3 0
04 17.08 СВ 1 20 км н/о +13.3 +9.0 75 +14 +14 1018.4 964.5
05 17.08 СВ 1 20 км н/о +13.5 +8.8 73 +14 +14 1018.4 964.5
06 17.08 СВ 1
{4}
20 км н/о +15.0 +9.4 69 +16 +16 1018.1 964.5 +13.2 +27.2 0
07 17.08 В 1 20 км н/о +17.0 +9.2 60 +18 +18 1017.8 964.6
08 17.08 В 1 20 км н/о +20.6 +9.8 50 +24 +24 комфорт 1017.1 964.5
09 17.08 СВ 2
{6}
20 км н/о +24.6 +8.9 37 +25 +25 комфорт 1016.2 964.4 0
10 17.08 Ю 1 20 км н/о +28.0 +8.8 30 +28 +28 жарко 1015.2 964.0
11 17.08 ЮЗ 3 20 км н/о +29.4 +7.3 25 +28 +28 жарко 1014.9 963.9
12 17.08 ЮЗ 3
{7}
19 км н/о +30.6 +7.7 24 +30 +30 жарко 1014.2 963.4 0
13 17.08 Ю 2 19 км н/о +30.7 +7.2 23 +29 +29 жарко 1013.6 962.9
14 17.08 Ю 2 20 км н/о +31.6 +7.3 22 +30 +30 жарко 1012.9 962.4
15 17.08 Ю 2
{8}
20 км н/о +32.3 +5.7 19 +30 +30 жарко 1012.3 961.9 0
16 17.08 ЮЗ 3 20 км н/о +31.9 +6.9 21 +30 +30 жарко 1012.2 961.7
17 17.08 ЮЗ 4 20 км н/о +30.8 +10.7 29 +31 +31 жарко 1012.1 961.5
18 17.08 Ю 3
{10}
20 км н/о +28.5 +11.5 35 +29 +29 жарко 1012.9 961.9 +15.0 +32.9 0
19 17.08 Ю 2 20 км н/о +26.4 +12.1 41 +28 +28 жарко 1013.8 962.4
20 17.08 ЮЗ 1 20 км н/о +23.7 +12.7 50 +26 +26 жарко 1015.2 963.3
21 17.08 ЮЗ 1
{4}
20 км н/о +21.7 +13.6 60 +24 +24 комфорт 1015.9 963.7 0
22 17.08 ЮВ 1 20 км н/о +20.3 +13.7 66 +24 +24 комфорт 1016.4 963.9
23 17.08 ЮВ 1 20 км н/о +18.4 +11.9 66 +20 +20 1016.9 964.0
00 18.08 ЮВ 1
{4}
20 км н/о +17.0 +11.9 72 +18 +18 1017.0 963.9 0
01 18.08 штиль 0 20 км н/о +15.9 +12.3 79 +16 +16 1016.9 963.6
02 18.08 СВ 1 20 км н/о +15.3 +11.7 79 +16 +16 1016.7 963.3
03 18.08 СВ 1
{4}
20 км н/о +14.7 +11.5 81 +15 +15 1016.6 963.1 0
04 18.08 СВ 1 20 км н/о +14.3 +11.3 82 +15 +15 1016.5 962.9
05 18.08 СВ 1 20 км н/о +13.9 +10.9 82 +15 +15 1016.7 963.0
06 18.08 СВ 1
{3}
20 км н/о +15.8 +11.8 77 +16 +16 1016.3 963.0 +13.8 +28.5 0
07 18.08 СВ 1 20 км н/о +18.6 +11.7 64 +20 +20 1016.1 963.3
08 18.08 В 1 20 км н/о +22.7 +12.6 53 +25 +25 комфорт 1015.4 963.3
09 18.08 ЮЗ 1
{4}
20 км н/о +24.6 +15.0 55 +27 +27 жарко 1014.9 963.2 0
10 18.08 ЮЗ 2 20 км н/о +27.1 +14.1 45 +29 +29 жарко 1014.1 962.9
11 18.08 ЮЗ 3 20 км н/о +28.9 +13.2 38 +30 +30 жарко 1013.7 962.8
12 18.08 ЮЗ 2
{8}
19 км н/о +30.1 +13.8 37 +32 +32 жарко 1013.1 962.4 0
13 18.08 ЮЗ 3 17 км н/о +31.1 +13.8 35 +33 +33 душно 1012.4 961.9
14 18.08 ЮЗ 4 20 км н/о +31.6 +14.3 35 +33 +33 жарко 1012.0 961.6
15 18.08 ЮЗ 3
{10}
20 км н/о +30.5 +14.6 38 +33 +33 душно 1011.8 961.3 0
16 18.08 Ю 3 20 км 8/8 1500 м
[]
+30.2 +15.9 42 +33 +34 душно 1011.7 961.1
17 18.08 Ю 3 20 км н/о +29.2 +16.7 47 +33 +33 очень
душно
1011.7 961.0
18 18.08 Ю 3
{9}
20 км 10/0 2000 м
[]
+27.7 +16.6 51 +31 +31 душно 1012.4 961.4 +15.9 +31.9 0
19 18.08 ЮЗ 2 20 км н/о +25.7 +16.0 55 +29 +29 душно 1013.0 961.6
20 18.08 ЮЗ 2 20 км н/о +24.2 +15.7 59 +27 +27 жарко 1014.3 962.6
21 18.08 ЮЗ 2
{4}
20 км н/о +21.9 +15.5 67 +26 +26 душно 1015.5 963.4 0
22 18.08 З 1 20 км н/о +20.8 +15.3 71 +25 +25 комфорт 1016.2 963.8
23 18.08 З 1 20 км н/о +19.3 +15.0 76 +22 +22 комфорт 1016.7 964.0
00 19.08 Ю 1
{3}
20 км н/о +18.7 +15.0 79 +21 +21 комфорт 1016.6 963.8 0
01 19.08 В 1 20 км н/о +18.4 +14.7 79 +21 +21 комфорт 1016.4 963.6
02 19.08 В 1 20 км н/о +17.4 +14.3 82 +19 +19 1016.6 963.6
03 19.08 штиль 0
{2}
20 км н/о +16.5 +14.5 88 +16 +16 1016.9 963.7 0
04 19.08 штиль 0 20 км н/о +15.3 +13.8 91 +15 +15 1016.7 963.3
05 19.08 СВ 1 20 км 10/10 1500 м
[]
+15.8 +14.2 90 +17 +17 1016.9 963.6
06 19.08 СВ 1
{2}
20 км н/о +17.1 +14.2 83 +18 +18 1016.9 963.8 +15.2 +27.7 0
07 19.08 СВ 1 20 км н/о +20.0 +14.4 70 +23 +23 комфорт 1016.3 963.8
08 19.08 СВ 1 20 км н/о +22.8 +14.4 59 +26 +26 жарко 1016.0 964.0
09 19.08 В 1
{6}
20 км н/о +25.8 +11.5 41 +27 +27 жарко 1015.4 963.8 0
10 19.08 ЮЗ 2 20 км 8/8
[]
+28.1 +9.9 32 +28 +31 жарко 1014.7 963.5
11 19.08 ЮЗ 3 20 км 10/10
[]
+28.9 +10.1 31 +29 +29 жарко 1014.5 963.5
12 19.08 ЮЗ 3
{9}
17 км н/о +30.4 +12.8 34 +31 +31 жарко 1014.0 963.3 0
13 19.08 ЮЗ 3 20 км н/о +30.6 +14.7 38 +33 +33 душно 1013.8 963.2
14 19.08 ЮЗ 3 20 км 10/10
[]
+30.5 +14.2 37 +32 +32 жарко 1013.7 963.1
15 19.08 ЮЗ 3
{8}
20 км 9/0
[]
+29.6 +14.6 40 +32 +32 душно 1014.1 963.3 0
16 19.08 Ю 2 20 км 8/8
[]
+28.1 +16.4 49 +32 +32 душно 1014.4 963.4
17 19.08 Ю 2 20 км 8/1 1320 м
[]
+26.6 +16.8 55 +30 +31 душно 1015.0 963.7
18 19.08 Ю 1
{5}
20 км 9/9 1000 м
[]
+25.8 +17.2 59 +30 +30 душно 1015.5 964.1 +17.1 +31.9 0
19 19.08 Ю 1 20 км 10/8 1140 м
[]
+24.7 +18.6 69 +29 +29 душно 1016.2 964.6
20 19.08 Ю 1 20 км 10/10 1110 м
[]
+24.0 +19.5 76 +29 +29 душно 1017.0 965.2
21 19.08 З 1
{3}
19 км 9/9 1000 м
[]
+22.8 +20.0 84 +29 +29 очень
душно
1017.3 965.3 0.0 0
22 19.08 ЮЗ 1 19 км 10/10
[]
+22.6 +19.8 84 +29 +29 очень
душно
1017.1 965.1
23 19.08 З 1 19 км 10/10
[]
+22.0 +19.2 84 +27 +27 душно 1017.0 964.9
00 20.08 СЗ 1
{4}
20 км 10/0
[]
+21.8 +19.2 85 +27 +27 душно 1017.0 964.9 0
01 20.08 штиль 0 19 км 10/10
[]
+21.3 +18.9 86 +26 +26 душно 1016.6 964.4
02 20.08 В 1 20 км 10/10
[]
+21.4 +19.0 86 +26 +26 душно 1016.2 964.0
03 20.08 СВ 1
{2}
19 км 10/0
[]
+20.9 +18.8 88 +27 +27 душно 1016.1 963.8 0
04 20.08 З 1 19 км 10/10
[]
+20.4 +18.2 87 +25 +25 комфорт 1016.2 963.8
05 20.08 ЮВ 1 20 км 10/10 1500 м
[]
+20.7 +17.3 81 +26 +26 душно 1016.5 964.1
06 20.08 ЮВ 1
{3}
20 км 10/10 1500 м
[]
+21.0 +18.4 85 +27 +27 душно 1016.5 964.2 +20.3 +25.8 0.0 0
07 20.08 ЮВ 1 20 км 10/10
[]
+22.2 +18.4 79 +27 +27 душно 1016.6 964.5
08 20.08 штиль 0 20 км н/о +24.5 +18.2 68 +29 +29 душно 1016.3 964.6
09 20.08 ЮЗ 2
{4}
19 км н/о +25.3 +18.7 67 +30 +30 душно 1016.4 964.9 0
10 20.08 ЮЗ 3 20 км н/о +26.2 +18.1 61 +31 +31 очень
душно
1016.4 965.0
11 20.08 ЮЗ 3 20 км 9/9
[]
+27.5 +17.7 55 +32 +33 очень
душно
1016.0 964.8
12 20.08 ЮЗ 3
{8}
20 км н/о +27.9 +16.8 51 +32 +32 душно 1015.7 964.6 0
13 20.08 ЮЗ 2 20 км 10/10
[]
+28.4 +17.0 50 +32 +32 душно 1015.7 964.7
14 20.08 ЮЗ 3 20 км н/о +28.2 +16.5 49 +32 +32 душно 1015.6 964.5
15 20.08 ЮЗ 4
{7}
20 км 9/0
[]
+27.0 +16.6 53 +31 +33 душно 1016.0 964.7 0
16 20.08 ЮЗ 5
{6}
20 км 10/10
[]
+24.9 +16.3 59 +28 +30 жарко 1016.4 964.7
17 20.08 З 3
{6}
20 км 9/9
[]
+23.7 +15.7 61 +27 +28 жарко 1016.7 964.8
18 20.08 СЗ 1
{4}
20 км 10/0
[]
+23.5 +15.8 62 +27 +27 душно 1016.9 965.0 +21.0 +29.1 0
19 20.08 С 4 20 км н/о +20.4 +14.1 67 +23 +23 комфорт 1017.7 965.2
20 20.08 С 3 20 км н/о +19.9 +12.4 62 +22 +22 комфорт 1018.0 965.3
21 20.08 С 3
{12}
20 км н/о +19.3 +11.6 61 +21 +21 комфорт 1018.6 965.8 0
22 20.08 С 3 20 км н/о +19.0 +11.3 61 +20 +20 1018.6 965.7
23 20.08 СВ 3 20 км н/о +18.6 +11.2 62 +19 +19 1018.3 965.4
00 21.08 СВ 3
{11}
20 км н/о +17.9 +11.0 64 +18 +18 1018.5 965.4 0
01 21.08 СВ 3 20 км н/о +17.4 +10.7 65 +18 +18 1018.6 965.4
02 21.08 СВ 3 20 км н/о +17.2 +10.6 65 +17 +17 1018.6 965.4
03 21.08 СВ 3
{13}
20 км н/о +16.6 +10.4 67 +17 +17 1018.6 965.3 0
04 21.08 СВ 3 20 км н/о +16.2 +10.5 69 +16 +16 1018.6 965.2
05 21.08 СВ 3 20 км н/о +16.1 +10.4 69 +16 +16 1018.9 965.5
06 21.08 СВ 4
{13}
20 км н/о +16.7 +10.3 66 +16 +16 1019.0 965.7 +16.0 +23.5 0
07 21.08 СВ 3 20 км н/о +18.2 +10.6 61 +19 +19 1019.2 966.1
08 21.08 СВ 3 20 км н/о +19.8 +11.0 57 +21 +21 комфорт 1018.8 966.0
09 21.08 СВ 3
{11}
20 км н/о +22.1 +11.5 51 +24 +24 комфорт 1018.3 966.0 0
10 21.08 С 2 20 км н/о +24.6 +11.9 45 +26 +26 жарко 1017.6 965.7
11 21.08 В 1 20 км н/о +27.2 +12.4 40 +29 +29 жарко 1016.2 964.9
12 21.08 ЮЗ 2
{7}
20 км н/о +28.9 +13.9 40 +31 +31 жарко 1015.3 964.3 0
13 21.08 ЮЗ 3 20 км н/о +30.1 +15.0 40 +32 +32 жарко 1015.1 964.3
14 21.08 ЮЗ 3 20 км н/о +30.5 +14.2 37 +32 +32 жарко 1014.6 963.9
15 21.08 ЮЗ 4
{11}
20 км 8/0 2000 м
[]
+30.0 +12.9 35 +31 +32 жарко 1014.8 964.0 0
16 21.08 ЮЗ 3 20 км н/о +29.4 +13.6 38 +31 +31 жарко 1014.9 964.0
17 21.08 ЮЗ 3 20 км 9/9 2000 м
[]
+28.6 +12.9 38 +30 +30 жарко 1014.8 963.8
18 21.08 ЮЗ 2
{8}
18 км 9/0 2000 м
[]
+27.5 +13.1 41 +29 +29 жарко 1015.6 964.3 +16.6 +31.4 0
19 21.08 ЮЗ 2 20 км н/о +25.1 +13.9 50 +27 +27 жарко 1016.8 965.1
20 21.08 ЮЗ 2 20 км н/о +23.2 +13.9 56 +27 +27 душно 1017.8 965.7
21 21.08 ЮВ 1
{3}
20 км 8/8 1500 м
[]
+22.1 +14.0 60 +25 +25 комфорт 1018.2 965.9 0
22 21.08 В 1 20 км 10/10
[]
+21.2 +14.1 64 +24 +24 комфорт 1018.7 966.2
23 21.08 СВ 1 20 км 9/9
[]
+21.4 +12.3 56 +24 +24 комфорт 1018.8 966.3
00 22.08 СВ 2
{6}
20 км 10/0
[]
+20.4 +12.4 60 +23 +23 комфорт 1018.6 966.0 0
01 22.08 СВ 2 20 км 9/9
[]
+19.9 +12.2 61 +22 +22 комфорт 1018.5 965.8
02 22.08 СВ 2 20 км 10/10
[]
+19.4 +12.2 63 +21 +21 комфорт 1018.6 965.8
03 22.08 СВ 2
{8}
20 км 10/0
[]
+18.9 +12.2 65 +20 +20 1018.8 965.9 0
04 22.08 СВ 2 20 км 10/10
[]
+18.7 +12.2 66 +20 +20 1019.0 966.1
05 22.08 В 1 20 км 8/8
[]
+18.1 +12.1 68 +20 +20 1019.7 966.6
06 22.08 СВ 1
{5}
20 км 9/0
[]
+18.5 +12.3 67 +20 +20 1019.7 966.7 +18.0 +27.5 0
07 22.08 СВ 2 20 км н/о +19.6 +12.6 64 +22 +22 комфорт 1019.7 966.9
08 22.08 СВ 3 20 км 9/9
[]
+21.4 +13.1 59 +24 +24 комфорт 1019.3 966.8
09 22.08 СВ 1
{8}
20 км 10/0
[]
+23.3 +13.5 54 +27 +27 душно 1019.4 967.3 0
10 22.08 С 2 20 км 10/10
[]
+26.0 +13.8 47 +28 +28 жарко 1018.7 967.1
11 22.08 СЗ 1 20 км 10/10
[]
+28.1 +13.6 41 +30 +30 жарко 1018.2 966.9
12 22.08 В 1
{3}
20 км 10/0
[]
+30.0 +13.3 36 +31 +31 жарко 1017.3 966.4 0
13 22.08 Ю 2 20 км н/о +29.7 +13.5 37 +31 +31 жарко 1016.7 965.8
14 22.08 В 3 17 км 10/10 2000 м
[]
+26.1 +11.1 39 +27 +27 жарко 1018.7 967.0
15 22.08 В 2
{12}
н/о 10/0
[]
+21.0 +12.9 60 +24 +24 комфорт 1020.7 968.1 0.4
16 22.08 ЮВ 2 н/о 10/1 1140 м
[]
+19.2 +14.5 74 +21 +23 комфорт 1020.5 967.6 0.2
17 22.08 ЮВ 1 н/о н/о +18.8 +15.5 81 +21 +21 комфорт 1020.8 967.8
18 22.08 В 2
{8}
н/о н/о +19.0 +15.1 78 +21 +21 комфорт 1020.7 967.8 +18.6 +30.9 0.2
19 22.08 В 2 н/о н/о +18.8 +15.3 80 +21 +21 комфорт 1021.3 968.3
20 22.08 ЮВ 1 н/о н/о +17.5 +14.9 85 +19 +19 1021.6 968.4
21 22.08 В 1
{5}
н/о н/о +16.3 +14.7 90 +17 +17 1021.4 968.0
22 22.08 СВ 1 н/о н/о +18.0 +14.5 80 +19 +19 1021.0 967.9
23 22.08 В 1 н/о н/о +17.4 +13.9 80 +18 +18 1020.8 967.6
00 23.08 В 2
{7}
н/о н/о +17.1 +13.4 79 +18 +18 1020.8 967.5
01 23.08 В 1 н/о н/о +17.7 +14.0 79 +19 +19 1020.6 967.4
02 23.08 В 1 н/о н/о +17.9 +14.0 78 +19 +19 1020.4 967.3
03 23.08 В 2
{5}
н/о н/о +17.4 +13.9 80 +18 +18 1020.6 967.4
04 23.08 В 1
{3}
н/о н/о +15.3 +12.6 84 +16 +16 1020.9 967.3
05 23.08 В 1 н/о н/о +15.3 +12.8 85 +16 +16 1021.0 967.4
06 23.08 СВ 1
{5}
н/о н/о +16.5 +12.8 79 +18 +18 1020.9 967.5 +14.5 +19.1
07 23.08 В 1 н/о н/о +18.8 +13.4 71 +21 +21 комфорт 1020.6 967.6
08 23.08 СВ 2 н/о н/о +21.8 +13.4 59 +25 +25 комфорт 1019.7 967.3
09 23.08 СВ 2
{7}
20 км н/о +24.5 +13.1 49 +27 +27 жарко 1019.3 967.4 0
10 23.08 В 1 18 км н/о +26.9 +12.5 41 +28 +28 жарко 1018.6 967.1
11 23.08 Ю 2 20 км н/о +29.5 +11.1 32 +30 +30 жарко 1017.6 966.5
12 23.08 ЮЗ 2
{7}
18 км н/о +31.2 +10.0 27 +31 +31 жарко 1016.7 965.9 0
13 23.08 ЮЗ 2 14 км н/о +31.7 +9.8 26 +31 +31 жарко 1016.0 965.4
14 23.08 ЮЗ 2 20 км н/о +32.0 +8.9 24 +31 +31 жарко 1015.3 964.7
15 23.08 ЮЗ 3 20 км н/о +31.9 +10.6 27 +32 +32 жарко 1015.1 964.5
16 23.08 Ю 4 20 км 10/10 2000 м
[]
+29.4 +15.5 43 +32 +32 душно 1015.6 964.7
17 23.08 Ю 3 20 км 10/10
[]
+25.7 +16.5 57 +29 +29 душно 1016.9 965.4

 

Местоположение метеостанции Шато-Арну-Сент-Обан (Франция): широта 44.07 долгота 6.00 высота над уровнем моря 461 м.

В архиве по умолчанию представлена погода в Шато-Арну-Сент-Обане за последнюю неделю. Архивные данные за месяц целиком и за предыдущие месяцы, начиная с января 2011 года, Вы можете получить, выбрав интересующий диапазон дат из раскрывающегося списка и нажав кнопку "Ввод!".


*Определитесь, кто Вы:
робот инопланетянин человек

Внимание! Время в таблицах - всемирное. Для получения местного времени необходимо прибавить поправку, которая равна 1 ч.

Смотрите также архив погоды в соседних городах и на ближайших метеорологических станциях:

Погода в Амбрёне (Франция) (68 км)
Погода в Карпентрасе (Франция) (76 км)
Погода в Ле-Люке (Франция) (83 км)
Погода в Салон-де-Провансе (Франция) (89 км)
Погода в Авиньон (Франция) (90 км)
Погода в Мариньяне (Франция) (93 км)
Погода в Оранже (Франция) (94 км)
Погода в Каннах (Франция) (97 км)
Погода в Ла-Сьоте (Франция) (105 км)
Погода в Истре (Франция) (106 км)

Пояснения к столбцам:

Ветер - указаны скорость ветра в м/с - средняя за 10 мин, порывы в срок и между сроками (в фигурных скобках) и направление, откуда дует ветер: С - северный, СВ - северо-восточный, В - восточный, ЮВ - юго-восточный, Ю - южный, ЮЗ - юго-западный, З - западный, СЗ - северо-западный.
Видимость - горизонтальная дальность видимости в метрах или километрах. При видимости от 1 до 10 км при отсутствии осадков обычно наблюдается дымка, при ухудшении видимости до 1 км и менее - туман. В сухую погоду видимость может ухудшаться дымом, пылью или мглою.
Явления - указаны атмосферные явления, наблюдавшиеся в срок или в последний час перед сроком; фигурными скобками обозначены явления, наблюдавшиеся между сроками (за 1-3 часа до срока); квадратными скобками обозначены град или гололедные отложения с указанием их диаметра в мм.
Облачность - указаны через наклонную черту общая и нижняя облачность в баллах и высота нижней границы облаков в метрах; квадратными скобками обозначены формы облаков: Ci - перистые, Cs - перисто-слоистые, Cc - перисто-кучевые, Ac - высококучевые, As - высокослоистые, Sc - слоисто-кучевые, Ns - слоисто-дождевые, Cu - кучевые, Cb - кучево-дождевые. Подробнее классификацию облаков см. в Атласе облаков (PDF).
T - Температура воздуха - температура, измеренная на высоте 2 м над землей.
Td - Температура точки росы - температура, при понижении до которой содержащийся в воздухе водяной пар достигнет насыщения.
f - Относительная влажность воздуха - влажноcть воздуха, измеренная на высоте 2 м над землей.
Te - Эффективная температура - температура, которую ощущает одетый по сезону человек в тени. Характеристика душности погоды. При расчете учитывается влияние влажности воздуха и скорости ветра на теплоощущения человека.
Tes - Эффективная температура на солнце - температура, которую ощущает человек, с поправкой на солнечный нагрев. Характеристика знойности погоды. Зависит от высоты солнца над горизонтом, облачности и скорости ветра. Ночью, в пасмурную погоду, а также при ветре 12 м/с и более поправка равна нулю.
P - Атмосферное давление - приведенное к уровню моря атмосферное давление.
Po - Атмосферное давление - измеренное на уровне метеостанции атмосферное давление.
Tmin - Минимальная температура - минимум температуры воздуха на высоте 2 м над землей.
Tmax - Максимальная температура - максимум температуры воздуха на высоте 2 м над землей.
R - Количество осадков - Количество выпавших осадков за период времени, мм. При наведении курсора мыши на число - период времени, за который выпало указанное количество осадков.
R24 - Количество осадков - Количество выпавших осадков за 24 часа, мм.
S - Снежный покров - Высота снежного покрова, см. При наведении курсора мыши на число - состояние снежного покрова и степень покрытия местности в баллах.